Time,TemperatureF,DewpointF,PressureIn,WindDirection,WindDirectionDegrees,WindSpeedMPH,WindSpeedGustMPH,Humidity,HourlyPrecipIn,Conditions,Clouds,dailyrainin,SoftwareType,DateUTC
2013-06-14 00:00:00,85.1,77.1,29.75,WSW,257,4.0,6.0,77,0.00,,---,0.00,VWS V14.01,2013-06-14 04:00:00,
2013-06-14 00:01:00,85.1,77.1,29.75,West,259,1.0,2.0,77,0.00,,---,0.00,VWS V14.01,2013-06-14 04:01:00,
2013-06-14 00:06:00,85.1,77.1,29.75,West,271,2.0,3.0,77,0.00,,---,0.00,VWS V14.01,2013-06-14 04:06:00,
2013-06-14 00:11:00,85.2,77.2,29.75,West,269,5.0,5.0,77,0.00,,---,0.00,VWS V14.01,2013-06-14 04:11:00,
2013-06-14 00:16:00,85.3,76.9,29.75,WSW,257,4.0,6.0,76,0.00,,---,0.00,VWS V14.01,2013-06-14 04:16:00,
2013-06-14 00:21:00,85.4,77.0,29.75,SW,220,0.0,4.0,76,0.00,,---,0.00,VWS V14.01,2013-06-14 04:21:00,
2013-06-14 00:26:00,85.4,76.6,29.74,SSW,194,1.0,6.0,75,0.00,,---,0.00,VWS V14.01,2013-06-14 04:26:00,
2013-06-14 00:31:00,85.4,76.6,29.73,SSW,206,0.0,1.0,75,0.00,,---,0.00,VWS V14.01,2013-06-14 04:31:00,
2013-06-14 00:36:00,85.4,76.6,29.74,NNE,18,0.0,3.0,75,0.00,,---,0.00,VWS V14.01,2013-06-14 04:36:00,
2013-06-14 00:41:00,85.4,76.2,29.74,West,269,0.0,1.0,74,0.00,,---,0.00,VWS V14.01,2013-06-14 04:41:00,
2013-06-14 00:46:00,85.4,76.6,29.73,South,183,0.0,3.0,75,0.00,,---,0.00,VWS V14.01,2013-06-14 04:46:00,
2013-06-14 00:51:00,85.4,76.6,29.73,WSW,245,4.0,7.0,75,0.00,,---,0.00,VWS V14.01,2013-06-14 04:51:00,
2013-06-14 00:56:00,85.4,76.2,29.74,SW,220,8.0,9.0,74,0.00,,---,0.00,VWS V14.01,2013-06-14 04:56:00,
2013-06-14 01:01:00,85.4,76.2,29.74,WNW,288,4.0,5.0,74,0.00,,---,0.00,VWS V14.01,2013-06-14 05:01:00,
2013-06-14 01:06:00,85.3,76.1,29.74,WNW,289,0.0,4.0,74,0.00,,---,0.00,VWS V14.01,2013-06-14 05:06:00,
2013-06-14 01:11:00,85.2,76.0,29.73,SW,224,4.0,4.0,74,0.00,,---,0.00,VWS V14.01,2013-06-14 05:11:00,
2013-06-14 01:16:00,85.1,76.3,29.74,WSW,256,3.0,6.0,75,0.00,,---,0.00,VWS V14.01,2013-06-14 05:16:00,
2013-06-14 01:21:00,84.9,76.1,29.74,WSW,251,8.0,8.0,75,0.00,,---,0.00,VWS V14.01,2013-06-14 05:21:00,
2013-06-14 01:26:00,84.8,76.4,29.75,WSW,253,6.0,9.0,76,0.00,,---,0.00,VWS V14.01,2013-06-14 05:26:00,
2013-06-14 01:31:00,84.7,76.3,29.75,West,263,3.0,9.0,76,0.00,,---,0.00,VWS V14.01,2013-06-14 05:31:00,
2013-06-14 01:36:00,84.6,76.6,29.75,West,274,3.0,5.0,77,0.00,,---,0.00,VWS V14.01,2013-06-14 05:36:00,
2013-06-14 01:41:00,84.4,76.8,29.75,West,260,3.0,7.0,78,0.00,,---,0.00,VWS V14.01,2013-06-14 05:41:00,
2013-06-14 01:46:00,84.3,76.3,29.75,West,266,5.0,5.0,77,0.00,,---,0.00,VWS V14.01,2013-06-14 05:46:00,
2013-06-14 01:51:00,84.2,76.2,29.75,WNW,284,2.0,3.0,77,0.00,,---,0.00,VWS V14.01,2013-06-14 05:51:00,
2013-06-14 01:56:00,84.0,76.4,29.75,West,280,1.0,1.0,78,0.00,,---,0.00,VWS V14.01,2013-06-14 05:56:00,
2013-06-14 02:01:00,83.9,76.3,29.75,West,266,3.0,5.0,78,0.00,,---,0.00,VWS V14.01,2013-06-14 06:01:00,
2013-06-14 02:06:00,83.8,76.2,29.75,WSW,252,4.0,4.0,78,0.00,,---,0.00,VWS V14.01,2013-06-14 06:06:00,
2013-06-14 02:11:00,83.7,76.5,29.75,West,268,4.0,6.0,79,0.00,,---,0.00,VWS V14.01,2013-06-14 06:11:00,
2013-06-14 02:16:00,83.6,76.4,29.75,West,262,4.0,5.0,79,0.00,,---,0.00,VWS V14.01,2013-06-14 06:16:00,
2013-06-14 02:21:00,83.5,76.3,29.75,West,271,3.0,6.0,79,0.00,,---,0.00,VWS V14.01,2013-06-14 06:21:00,
2013-06-14 02:26:00,83.3,76.5,29.74,West,260,2.0,4.0,80,0.00,,---,0.00,VWS V14.01,2013-06-14 06:26:00,
2013-06-14 02:31:00,83.1,76.7,29.74,SSW,211,3.0,4.0,81,0.00,,---,0.00,VWS V14.01,2013-06-14 06:31:00,
2013-06-14 02:36:00,82.9,76.8,29.74,WSW,243,2.0,2.0,82,0.00,,---,0.00,VWS V14.01,2013-06-14 06:36:00,
2013-06-14 02:41:00,82.7,76.7,29.74,West,263,5.0,5.0,82,0.00,,---,0.00,VWS V14.01,2013-06-14 06:41:00,
2013-06-14 02:46:00,82.6,76.6,29.74,West,280,3.0,3.0,82,0.00,,---,0.00,VWS V14.01,2013-06-14 06:46:00,
2013-06-14 02:51:00,82.5,76.1,29.74,West,267,3.0,4.0,81,0.00,,---,0.00,VWS V14.01,2013-06-14 06:51:00,
2013-06-14 02:56:00,82.4,76.0,29.74,West,273,5.0,5.0,81,0.00,,---,0.00,VWS V14.01,2013-06-14 06:56:00,
2013-06-14 03:01:00,82.4,76.0,29.74,WSW,253,3.0,3.0,81,0.00,,---,0.00,VWS V14.01,2013-06-14 07:01:00,
2013-06-14 03:06:00,82.4,75.6,29.74,West,274,7.0,8.0,80,0.00,,---,0.00,VWS V14.01,2013-06-14 07:06:00,
2013-06-14 03:11:00,82.5,75.7,29.74,West,259,4.0,6.0,80,0.00,,---,0.00,VWS V14.01,2013-06-14 07:11:00,
2013-06-14 03:16:00,82.4,76.0,29.73,West,281,3.0,6.0,81,0.00,,---,0.00,VWS V14.01,2013-06-14 07:16:00,
2013-06-14 03:21:00,82.3,75.9,29.74,West,264,3.0,8.0,81,0.00,,---,0.00,VWS V14.01,2013-06-14 07:21:00,
2013-06-14 03:26:00,82.2,75.8,29.74,WSW,250,2.0,4.0,81,0.00,,---,0.00,VWS V14.01,2013-06-14 07:26:00,
2013-06-14 03:31:00,82.1,76.1,29.73,WSW,243,3.0,6.0,82,0.00,,---,0.00,VWS V14.01,2013-06-14 07:31:00,
2013-06-14 03:36:00,82.0,76.0,29.74,West,276,7.0,7.0,82,0.00,,---,0.00,VWS V14.01,2013-06-14 07:36:00,
2013-06-14 03:41:00,81.9,75.9,29.74,WSW,258,6.0,6.0,82,0.00,,---,0.00,VWS V14.01,2013-06-14 07:41:00,
2013-06-14 03:46:00,81.9,76.2,29.73,West,274,0.0,3.0,83,0.00,,---,0.00,VWS V14.01,2013-06-14 07:46:00,
2013-06-14 03:51:00,81.6,75.9,29.74,WNW,282,2.0,3.0,83,0.00,,---,0.00,VWS V14.01,2013-06-14 07:51:00,
2013-06-14 03:56:00,81.5,75.8,29.73,WNW,284,2.0,2.0,83,0.00,,---,0.00,VWS V14.01,2013-06-14 07:56:00,
2013-06-14 04:01:00,81.4,75.7,29.73,West,267,4.0,4.0,83,0.00,,---,0.00,VWS V14.01,2013-06-14 08:01:00,
2013-06-14 04:06:00,81.4,75.7,29.74,WNW,300,2.0,5.0,83,0.00,,---,0.00,VWS V14.01,2013-06-14 08:06:00,
2013-06-14 04:11:00,81.2,75.2,29.74,WNW,293,6.0,6.0,82,0.00,,---,0.00,VWS V14.01,2013-06-14 08:11:00,
2013-06-14 04:16:00,81.2,75.2,29.74,NW,308,3.0,5.0,82,0.00,,---,0.00,VWS V14.01,2013-06-14 08:16:00,
2013-06-14 04:21:00,81.1,75.1,29.74,West,281,5.0,6.0,82,0.00,,---,0.00,VWS V14.01,2013-06-14 08:21:00,
2013-06-14 04:26:00,81.0,74.6,29.74,WNW,303,6.0,7.0,81,0.00,,---,0.00,VWS V14.01,2013-06-14 08:26:00,
2013-06-14 04:31:00,80.8,74.4,29.74,WNW,287,7.0,8.0,81,0.00,,---,0.00,VWS V14.01,2013-06-14 08:31:00,
2013-06-14 04:36:00,80.6,74.2,29.74,WNW,300,6.0,7.0,81,0.00,,---,0.00,VWS V14.01,2013-06-14 08:36:00,
2013-06-14 04:41:00,80.3,74.3,29.75,NW,304,3.0,6.0,82,0.00,,---,0.00,VWS V14.01,2013-06-14 08:41:00,
2013-06-14 04:46:00,80.1,74.1,29.75,NW,309,3.0,7.0,82,0.00,,---,0.00,VWS V14.01,2013-06-14 08:46:00,
2013-06-14 04:51:00,79.8,74.2,29.75,NW,323,3.0,5.0,83,0.00,,---,0.00,VWS V14.01,2013-06-14 08:51:00,
2013-06-14 04:56:00,79.5,73.9,29.75,NNE,22,1.0,4.0,83,0.00,,---,0.00,VWS V14.01,2013-06-14 08:56:00,
2013-06-14 05:01:00,79.4,74.2,29.76,NNW,338,4.0,4.0,84,0.00,,---,0.00,VWS V14.01,2013-06-14 09:01:00,
2013-06-14 05:06:00,79.3,74.1,29.76,NNW,338,3.0,8.0,84,0.00,,---,0.00,VWS V14.01,2013-06-14 09:06:00,
2013-06-14 05:11:00,79.1,73.8,29.76,NW,324,3.0,4.0,84,0.00,,---,0.00,VWS V14.01,2013-06-14 09:11:00,
2013-06-14 05:16:00,79.0,73.8,29.76,NNW,328,3.0,5.0,84,0.00,,---,0.00,VWS V14.01,2013-06-14 09:16:00,
2013-06-14 05:21:00,78.8,73.9,29.76,NW,315,2.0,2.0,85,0.00,,---,0.00,VWS V14.01,2013-06-14 09:21:00,
2013-06-14 05:26:00,78.6,73.4,29.76,NW,326,2.0,5.0,84,0.00,,---,0.00,VWS V14.01,2013-06-14 09:26:00,
2013-06-14 05:31:00,78.5,73.6,29.77,NW,326,4.0,8.0,85,0.00,,---,0.00,VWS V14.01,2013-06-14 09:31:00,
2013-06-14 05:36:00,78.3,73.4,29.78,WNW,301,2.0,6.0,85,0.00,,---,0.00,VWS V14.01,2013-06-14 09:36:00,
2013-06-14 05:41:00,78.2,73.3,29.78,NW,307,8.0,8.0,85,0.00,,---,0.00,VWS V14.01,2013-06-14 09:41:00,
2013-06-14 05:46:00,78.2,73.7,29.79,WNW,300,5.0,7.0,86,0.00,,---,0.00,VWS V14.01,2013-06-14 09:46:00,
2013-06-14 05:51:00,78.1,73.6,29.79,NW,325,7.0,7.0,86,0.00,,---,0.00,VWS V14.01,2013-06-14 09:51:00,
2013-06-14 05:56:00,77.9,73.4,29.79,WNW,300,5.0,6.0,86,0.00,,---,0.00,VWS V14.01,2013-06-14 09:56:00,
2013-06-14 06:01:00,77.8,73.3,29.79,NW,314,6.0,6.0,86,0.00,,---,0.00,VWS V14.01,2013-06-14 10:01:00,
2013-06-14 06:06:00,77.7,73.2,29.79,NW,323,2.0,6.0,86,0.00,,---,0.00,VWS V14.01,2013-06-14 10:06:00,
2013-06-14 06:11:00,77.5,73.3,29.79,NNW,334,2.0,3.0,87,0.00,,---,0.00,VWS V14.01,2013-06-14 10:11:00,
2013-06-14 06:16:00,77.4,73.2,29.80,NW,310,3.0,5.0,87,0.00,,---,0.00,VWS V14.01,2013-06-14 10:16:00,
2013-06-14 06:21:00,77.3,73.1,29.80,NW,324,5.0,7.0,87,0.00,,---,0.00,VWS V14.01,2013-06-14 10:21:00,
2013-06-14 06:26:00,77.2,73.0,29.80,NW,319,3.0,9.0,87,0.00,,---,0.00,VWS V14.01,2013-06-14 10:26:00,
2013-06-14 06:31:00,77.2,73.4,29.80,WNW,302,3.0,4.0,88,0.00,,---,0.00,VWS V14.01,2013-06-14 10:31:00,
2013-06-14 06:36:00,77.2,73.4,29.81,North,4,4.0,4.0,88,0.00,,---,0.00,VWS V14.01,2013-06-14 10:36:00,
2013-06-14 06:41:00,77.3,73.1,29.81,North,4,8.0,8.0,87,0.00,,---,0.00,VWS V14.01,2013-06-14 10:41:00,
2013-06-14 06:46:00,77.4,73.2,29.81,NW,314,5.0,6.0,87,0.00,,---,0.00,VWS V14.01,2013-06-14 10:46:00,
2013-06-14 06:51:00,77.5,73.3,29.81,NNW,342,5.0,7.0,87,0.00,,---,0.00,VWS V14.01,2013-06-14 10:51:00,
2013-06-14 06:56:00,77.5,73.0,29.81,NW,317,2.0,6.0,86,0.00,,---,0.00,VWS V14.01,2013-06-14 10:56:00,
2013-06-14 07:01:00,77.6,73.1,29.82,NW,321,5.0,6.0,86,0.00,,---,0.00,VWS V14.01,2013-06-14 11:01:00,
2013-06-14 07:06:00,77.6,72.7,29.82,North,1,6.0,6.0,85,0.00,,---,0.00,VWS V14.01,2013-06-14 11:06:00,
2013-06-14 07:11:00,77.7,73.2,29.82,NW,322,6.0,6.0,86,0.00,,---,0.00,VWS V14.01,2013-06-14 11:11:00,
2013-06-14 07:16:00,77.8,72.9,29.82,NNW,328,3.0,4.0,85,0.00,,---,0.00,VWS V14.01,2013-06-14 11:16:00,
2013-06-14 07:21:00,77.9,72.7,29.82,North,360,4.0,5.0,84,0.00,,---,0.00,VWS V14.01,2013-06-14 11:21:00,
2013-06-14 07:26:00,78.0,72.4,29.82,NNW,335,7.0,7.0,83,0.00,,---,0.00,VWS V14.01,2013-06-14 11:26:00,
2013-06-14 07:31:00,78.2,73.0,29.82,North,1,3.0,4.0,84,0.00,,---,0.00,VWS V14.01,2013-06-14 11:31:00,
2013-06-14 07:35:00,78.2,72.6,29.82,NNW,342,5.0,6.0,83,0.00,,---,0.00,VWS V14.01,2013-06-14 11:35:00,
2013-06-14 07:40:00,78.2,72.3,29.82,North,358,4.0,6.0,82,0.00,,---,0.00,VWS V14.01,2013-06-14 11:40:00,
2013-06-14 07:45:00,78.2,71.9,29.82,NNE,18,5.0,8.0,81,0.00,,---,0.00,VWS V14.01,2013-06-14 11:45:00,
2013-06-14 07:50:00,78.0,71.3,29.82,North,353,6.0,9.0,80,0.00,,---,0.00,VWS V14.01,2013-06-14 11:50:00,
2013-06-14 07:55:00,78.2,71.9,29.82,NNW,348,6.0,7.0,81,0.00,,---,0.00,VWS V14.01,2013-06-14 11:55:00,
2013-06-14 08:00:00,78.2,71.2,29.82,North,6,16.0,16.0,79,0.00,,---,0.00,VWS V14.01,2013-06-14 12:00:00,
2013-06-14 08:05:00,78.3,71.6,29.83,North,353,4.0,7.0,80,0.00,,---,0.00,VWS V14.01,2013-06-14 12:05:00,
2013-06-14 08:10:00,78.3,70.5,29.83,NNE,23,11.0,12.0,77,0.00,,---,0.00,VWS V14.01,2013-06-14 12:10:00,
2013-06-14 08:15:00,78.3,69.7,29.83,NNE,23,13.0,13.0,75,0.00,,---,0.00,VWS V14.01,2013-06-14 12:15:00,